User: anonymous   Login
Location: Tucson
(32.2217°N, 110.9265°W)
Time: 17:27:49
(UTC-07:00)
Language:

N. Korean satellite - Orbit

View from above orbital plane
View from above orbital plane
View from above satellite
View from above satellite

Ground track
Ground track

The orbit data is extracted from the following two-line orbital elements,

1 39026U 12072A   19258.47086335  .00000901  00000-0  34932-4 0  9998
2 39026  97.2139 258.7628 0038967 143.4739 216.9171 15.27981625375159
Epoch (UTC): 15 September 2019 11:18:02
Eccentricity: 0.0038967
inclination: 97.2139°
perigee height: 455 km
apogee height: 508 km
right ascension of ascending node: 258.7628°
argument of perigee: 143.4739°
revolutions per day: 15.27981625
mean anomaly at epoch: 216.9171°
orbit number at epoch: 37515

The dashed part of the orbit path shows where the satellite is in the earth's shadow,  

DLR